Volver al catálogo

COSMOS 2251 DEB

ActivoLEO
NORAD 33914·DEBRIS·🇷🇺 Russia

Lanzado Jun 16, 1993 desde Plesetsk Cosmodrome

Loading…

Próximos Pases (próximas 24 horas)

TLE

ActualizadoSource: Space-Track

Época: Sep 13, 2026, 12:41 UTC

1 33914U 93036DT  26256.52855051  .00000331  00000-0  27887-3 0  9995
2 33914  74.0878 282.0676 0304918 320.8804 204.7492 13.72278833878507

Sigue COSMOS 2251 DEB en tiempo real con AllMySat

Download on the App Store